OE3PDB-4 Weather Reports


Display with metric or nautical units.
time (UTC)temp
F
wind
direction
speed
MPH
gust
MPH
rain 1hr
in
rain 24hr
in
rain mn
in
humidity
%
barometer
mb
20260503021005 48 292 0.0 0.0 0.00 0.00 0.00 65 1018.1
20260503020005 48 292 0.0 0.0 0.00 0.00 0.00 65 1018.2
20260503015006 48 292 0.0 0.0 0.00 0.00 0.00 64 1018.2
20260503014006 48 292 0.0 0.0 0.00 0.00 0.00 64 1018.1
20260503013006 48 292 0.0 0.0 0.00 0.00 0.00 64 1018.1
20260503012006 49 292 0.0 0.0 0.00 0.00 0.00 64 1018.2
20260503011006 49 292 0.0 0.0 0.00 0.00 0.00 63 1018.4
20260503010006 49 292 0.0 0.0 0.00 0.00 0.00 63 1018.4
20260503005006 49 292 0.0 0.0 0.00 0.00 0.00 63 1018.3
20260503004006 50 292 0.0 0.0 0.00 0.00 0.00 62 1018.4
20260503003006 50 292 0.0 0.0 0.00 0.00 0.00 62 1018.4
20260503002006 50 292 0.0 0.0 0.00 0.00 0.00 62 1018.4
20260503001006 51 292 0.0 0.0 0.00 0.00 0.00 61 1018.5
20260503000006 51 292 0.0 0.0 0.00 0.00 0.00 61 1018.8
20260502235006 51 292 0.0 0.0 0.00 0.00 0.00 61 1018.9
20260502234006 51 292 0.0 0.0 0.00 0.00 0.00 60 1018.9
20260502233006 51 292 0.0 0.0 0.00 0.00 0.00 60 1019.0
20260502232006 52 292 0.0 0.0 0.00 0.00 0.00 59 1019.1
20260502231006 52 292 0.0 0.0 0.00 0.00 0.00 58 1019.3
20260502230006 52 292 0.0 0.0 0.00 0.00 0.00 58 1019.3
20260502225006 53 292 0.0 0.0 0.00 0.00 0.00 58 1019.4
20260502224006 53 292 0.0 0.0 0.00 0.00 0.00 58 1019.3
20260502223006 53 292 0.0 0.0 0.00 0.00 0.00 57 1019.4
20260502222006 54 292 0.0 0.0 0.00 0.00 0.00 56 1019.4
20260502221006 54 292 0.0 0.0 0.00 0.00 0.00 56 1019.5
20260502220006 54 292 0.0 0.0 0.00 0.00 0.00 55 1019.4
20260502215006 55 292 0.0 0.0 0.00 0.00 0.00 55 1019.4
20260502214006 55 292 0.0 0.0 0.00 0.00 0.00 55 1019.4
20260502213006 55 292 0.0 0.0 0.00 0.00 0.00 54 1019.5
20260502212006 56 292 0.0 0.0 0.00 0.00 0.00 53 1019.4
20260502211006 57 292 0.0 0.0 0.00 0.00 0.00 52 1019.7
20260502210006 57 292 0.0 0.0 0.00 0.00 0.00 52 1019.7
20260502205006 57 292 0.0 0.0 0.00 0.00 0.00 52 1019.8
20260502204006 57 292 0.0 0.0 0.00 0.00 0.00 51 1019.8
20260502203006 58 270 0.0 0.0 0.00 0.00 0.00 50 1019.8
20260502202006 58 270 0.0 0.0 0.00 0.00 0.00 50 1019.8
20260502201006 58 270 0.0 0.0 0.00 0.00 0.00 49 1019.8
20260502200006 59 270 0.0 0.0 0.00 0.00 0.00 48 1019.8
20260502195006 60 270 0.0 0.0 0.00 0.00 0.00 48 1019.9
20260502194006 60 270 0.0 0.0 0.00 0.00 0.00 47 1019.9
20260502193006 60 247 0.0 0.0 0.00 0.00 0.00 45 1019.9
20260502192006 61 247 0.0 0.0 0.00 0.00 0.00 45 1019.9
20260502191006 62 247 0.0 0.0 0.00 0.00 0.00 44 1019.8
20260502190006 62 247 0.0 0.0 0.00 0.00 0.00 44 1019.8
20260502185006 63 247 0.0 0.0 0.00 0.00 0.00 42 1019.8
20260502184006 64 247 0.0 0.0 0.00 0.00 0.00 42 1019.7
20260502183006 65 247 0.0 0.0 0.00 0.00 0.00 41 1019.6
20260502182006 66 247 0.0 0.0 0.00 0.00 0.00 40 1019.4
20260502181006 68 247 0.0 0.0 0.00 0.00 0.00 40 1019.1
20260502164006 75 247 0.0 0.0 0.00 0.00 0.00 29 1019.3
20260502163006 76 247 0.0 0.0 0.00 0.00 0.00 29 1019.3
20260502162006 77 247 0.0 0.0 0.00 0.00 0.00 28 1019.4
20260502161006 78 225 0.0 0.0 0.00 0.00 0.00 27 1019.4
20260502152006 80 292 0.0 0.0 0.00 0.00 0.00 26 1019.9
20260502151006 80 292 1.0 1.0 0.00 0.00 0.00 26 1020.1
20260502123007 78 292 0.0 0.0 0.00 0.00 0.00 27 1021.6
20260502122007 79 157 1.0 1.0 0.00 0.00 0.00 27 1021.9
20260502121007 78 202 0.0 0.0 0.00 0.00 0.00 29 1022.0
20260502115007 77 180 0.0 0.0 0.00 0.00 0.00 30 1022.2
20260502114007 76 202 0.0 0.0 0.00 0.00 0.00 30 1022.2
20260502113007 76 270 0.0 0.0 0.00 0.00 0.00 31 1022.3
20260502112007 76 315 0.0 2.0 0.00 0.00 0.00 31 1022.6
20260502111007 75 315 0.0 2.0 0.00 0.00 0.00 32 1022.6
20260502110007 74 270 0.0 0.0 0.00 0.00 0.00 33 1022.8
20260502105007 74 225 0.0 0.0 0.00 0.00 0.00 32 1022.8
20260502104007 73 225 0.0 0.0 0.00 0.00 0.00 33 1022.9
20260502103007 73 225 0.0 0.0 0.00 0.00 0.00 34 1023.1
20260502102007 73 315 0.0 4.0 0.00 0.00 0.00 34 1023.1
20260502101007 73 315 3.0 3.0 0.00 0.00 0.00 35 1023.3
20260502091007 69 315 0.0 4.0 0.00 0.00 0.00 40 1023.7
20260502071007 59 315 0.0 0.0 0.00 0.00 0.00 56 1024.5
20260502070007 58 315 0.0 3.0 0.00 0.00 0.00 58 1024.6
20260502065007 58 315 2.0 2.0 0.00 0.00 0.00 60 1024.6
20260502064007 57 337 0.0 0.0 0.00 0.00 0.00 62 1024.6
20260502063007 56 337 0.0 0.0 0.00 0.00 0.00 62 1024.7
20260502062007 56 337 0.0 0.0 0.00 0.00 0.00 62 1024.7
20260502061007 56 337 0.0 0.0 0.00 0.00 0.00 62 1024.7
20260502060007 54 337 0.0 0.0 0.00 0.00 0.00 65 1024.7
20260502055007 52 337 0.0 0.0 0.00 0.00 0.00 67 1024.7
20260502054007 51 337 0.0 0.0 0.00 0.00 0.00 65 1024.7
20260502053007 52 337 0.0 0.0 0.00 0.00 0.00 64 1024.9
20260502052007 53 337 0.0 0.0 0.00 0.00 0.00 65 1024.9
20260502051007 51 337 0.0 0.0 0.00 0.00 0.00 70 1024.8
20260502050007 48 337 0.0 0.0 0.00 0.00 0.00 72 1024.7
20260502045007 46 337 0.0 0.0 0.00 0.00 0.00 71 1024.7
20260502044007 45 337 0.0 0.0 0.00 0.00 0.00 71 1024.7
20260502043007 45 337 0.0 0.0 0.00 0.00 0.00 71 1024.7
20260502042007 44 337 0.0 0.0 0.00 0.00 0.00 71 1024.6
20260502041007 44 337 0.0 0.0 0.00 0.00 0.00 71 1024.7
20260502040007 45 337 0.0 0.0 0.00 0.00 0.00 71 1024.7
20260502035007 45 337 0.0 0.0 0.00 0.00 0.00 71 1024.8
20260502034007 44 337 0.0 0.0 0.00 0.00 0.00 71 1024.6
20260502033007 45 337 0.0 0.0 0.00 0.00 0.00 71 1024.6
20260502032007 45 337 0.0 0.0 0.00 0.00 0.00 71 1024.6
20260502031007 45 337 0.0 0.0 0.00 0.00 0.00 70 1024.6
20260502030007 45 337 0.0 0.0 0.00 0.00 0.00 70 1024.5
20260502025008 45 337 0.0 0.0 0.00 0.00 0.00 70 1024.5
20260502024008 45 337 0.0 0.0 0.00 0.00 0.00 70 1024.6
20260502023007 45 337 0.0 0.0 0.00 0.00 0.00 70 1024.7
20260502022008 45 337 0.0 0.0 0.00 0.00 0.00 70 1024.7